Dewpoint
-6 -5 -3 -4 -4 -3 -4 -3 -2 -3 -5 -9 -17 -18 -6 2 2 2 3 3 3 3 4 2 -2 1 3 3 3 3 4 5 5 5 5 4 5 6 6 6 6 5 5
-7 -6 -6 -4 -5 -3 -2 -2 -2 -1 -3 -5 -10 -18 -19 -6 1 2 2 3 3 2 2 -3 0 1 2 3 3 2 2 3 4 5 4 4 4 4 5 5 5 5 4
-8 -7 -7 -5 -3 -4 -4 -2 -2 -2 -2 -3 -5 -10 -18 -18 -6 1 2 3 2 1 -1 -12 -4 -2 3 3 3 3 2 2 3 3 4 4 4 4 4 4 4 1 -7
-3 -5 -6 -6 -6 -7 -7 -5 -3 -2 -1 -2 -3 -5 -8 -16 -20 -12 -2 1 1 -1 -11 -18 -13 -14 -9 -1 2 2 -0 -1 -7 -6 1 3 3 3 3 -0 -7 -14 -17
-3 -3 -4 -4 -3 -3 -5 -7 -6 -5 -2 -0 -1 -2 -5 -7 -14 -20 -19 -14 -10 -14 -18 -17 -17 -18 -17 -18 -18 -18 -18 -19 -21 -15 -9 -9 -9 -11 -14 -18 -22 -24 -23
-3 -4 -4 -4 -3 -3 -3 -4 -6 -6 -5 -3 -0 -0 -2 -4 -7 -13 -19 -19 -18 -19 -18 -18 -18 -19 -20 -21 -22 -22 -24 -25 -25 -24 -24 -24 -22 -22 -23 -23 -22 -21 -20
-3 -3 -3 -3 -4 -4 -4 -3 -4 -5 -5 -5 -4 -1 0 -1 -4 -8 -13 -18 -18 -18 -18 -19 -19 -19 -19 -21 -22 -24 -24 -25 -25 -24 -24 -22 -22 -22 -21 -21 -21 -21 -20
-4 -4 -4 -3 -4 -4 -4 -3 -3 -5 -5 -5 -5 -2 -0 0 -1 -4 -7 -12 -16 -17 -17 -18 -18 -18 -18 -19 -20 -21 -23 -24 -24 -24 -23 -22 -22 -21 -21 -21 -20 -20 -19
-5 -7 -6 -5 -4 -4 -4 -4 -4 -4 -4 -5 -6 -4 -1 0 0 -1 -4 -6 -9 -14 -16 -16 -17 -17 -18 -19 -19 -19 -21 -22 -22 -22 -22 -21 -21 -21 -21 -20 -20 -19 -18
-6 -6 -6 -4 -4 -4 -4 -3 -4 -3 -3 -4 -5 -5 -4 -3 -1 -0 -1 -4 -6 -8 -13 -15 -16 -17 -17 -17 -18 -19 -20 -21 -21 -21 -20 -21 -21 -21 -21 -20 -19 -18 -17
-5 -5 -5 -5 -4 -5 -4 -4 -3 -3 -3 -4 -5 -5 -6 -6 -5 -3 -1 -2 -3 -5 -7 -11 -14 -15 -16 -17 -17 -18 -19 -18 -19 -19 -18 -18 -19 -19 -19 -19 -18 -17 -16
-4 -4 -4 -3 -3 -3 -4 -4 -3 -4 -6 -7 -7 -8 -8 -7 -6 -4 -2 -1 -2 -3 -4 -6 -10 -13 -14 -14 -14 -17 -17 -17 -18 -18 -18 -17 -18 -18 -18 -17 -17 -17 -16
-4 -4 -3 -3 -3 -3 -4 -5 -7 -7 -7 -8 -7 -8 -8 -6 -4 -3 -2 -2 -2 -2 -2 -3 -6 -10 -12 -13 -12 -13 -14 -16 -17 -18 -18 -17 -17 -16 -16 -16 -16 -16 -15
-3 -4 -4 -4 -3 -4 -6 -7 -7 -7 -6 -6 -6 -5 -5 -6 -6 -4 -3 -2 -2 -2 -2 -3 -4 -7 -10 -12 -11 -11 -12 -14 -16 -16 -16 -14 -14 -15 -16 -15 -15 -15 -14
-5 -5 -6 -6 -5 -6 -6 -7 -7 -7 -6 -6 -6 -5 -5 -4 -5 -4 -3 -2 -1 -2 -3 -4 -4 -5 -7 -9 -11 -11 -11 -11 -13 -14 -13 -12 -12 -13 -15 -15 -14 -14 -14
-6 -7 -7 -7 -7 -7 -7 -8 -7 -6 -6 -6 -5 -4 -5 -3 -1 -2 -2 -2 -1 -1 -2 -3 -4 -4 -5 -7 -8 -11 -12 -12 -12 -12 -12 -11 -11 -12 -13 -15 -14 -13 -14
-6 -5 -4 -3 -3 -2 -2 -1 -1 -1 -1 -1 -1 -1 -1 -1 0 0 -0 -0 -0 -1 -2 -2 -3 -3 -4 -4 -6 -7 -10 -11 -11 -11 -12 -10 -11 -10 -12 -14 -13 -15 -15
-1 -1 -1 -1 -1 -1 -0 -1 -1 -1 -1 -1 -1 -2 -2 -1 -2 -1 -0 -1 -1 -1 -1 -1 -1 -0 -1 -2 -3 -4 -4 -5 -7 -9 -9 -8 -8 -9 -11 -12 -5 -13 -14
-2 -1 -1 -1 -1 -1 -1 -1 -1 -1 -1 -1 -2 -2 -2 -2 -1 -1 -1 -1 -1 -1 -1 -2 -2 -2 -2 -2 -3 -3 -3 -4 -4 -5 -7 -7 -6 -8 -9 -5 -5 -8 -14
-3 -1 0 -1 -0 -0 -1 -1 -2 -2 -2 -3 -3 -3 -3 -3 -3 -2 -2 -2 -2 -2 -2 -2 -2 -2 -2 -3 -3 -3 -4 -4 -4 -5 -5 -5 -5 -6 -5 -5 -6 -8 -8
-2 -2 -2 -1 -1 -0 -1 -1 -1 -1 -2 -2 -3 -4 -3 -2 -2 -2 -2 -2 -2 -2 -2 -2 -2 -2 -3 -3 -3 -4 -4 -4 -4 -4 -4 -5 -5 -5 -5 -6 -7 -7 -9
-5 -4 -2 -2 -3 -1 -1 -1 -1 -1 -1 -1 -2 -3 -4 -3 -2 -2 -2 -2 -2 -2 -2 -2 -2 -2 -3 -3 -3 -4 -4 -4 -4 -4 -5 -5 -5 -5 -6 -7 -7 -7 -8
-6 -5 -5 -4 -5 -6 -6 -5 -2 -3 -2 -1 -1 -2 -3 -3 -3 -3 -2 -2 -2 -2 -2 -2 -2 -2 -3 -3 -4 -4 -4 -5 -5 -5 -5 -5 -5 -6 -6 -7 -7 -8 -10
-10 -7 -7 -6 -7 -5 -5 -5 -5 -4 -4 -4 -2 -2 -2 -3 -3 -3 -3 -3 -3 -3 -2 -2 -3 -3 -4 -4 -4 -4 -5 -5 -5 -5 -5 -5 -5 -6 -6 -7 -8 -8 -10
-10 -9 -8 -6 -5 -8 -7 -5 -4 -4 -4 -4 -4 -3 -2 -2 -3 -3 -3 -3 -3 -3 -3 -3 -4 -4 -4 -4 -5 -5 -5 -5 -5 -5 -5 -5 -6 -6 -7 -7 -8 -9 -11
-14 -11 -11 -11 -11 -10 -6 -4 -4 -3 -3 -4 -4 -4 -3 -3 -2 -3 -3 -3 -4 -4 -4 -4 -4 -5 -5 -5 -5 -5 -5 -5 -5 -5 -6 -6 -6 -7 -7 -8 -9 -9 -11
Wind_Speed
19 18 20 21 21 20 21 20 19 19 18 18 16 15 15 12 12 11 10 11 11 12 13 15 16 15 13 12 11 10 11 12 14 16 14 14 12 10 7 7 8 10 10
16 16 16 18 19 20 21 20 21 21 20 19 17 17 16 15 14 14 14 15 14 14 15 16 15 13 13 12 12 11 11 11 12 12 13 12 12 12 12 11 11 13 14
17 17 16 17 18 19 19 19 20 22 22 21 20 19 18 18 17 16 16 16 16 17 17 16 15 13 12 12 13 14 12 11 11 11 10 11 11 12 10 9 10 9 8
22 20 20 18 19 20 21 21 22 22 24 24 22 22 20 20 19 19 19 19 19 19 18 17 15 14 12 11 11 11 11 12 11 10 10 9 9 9 8 8 7 7 7
26 25 24 23 23 24 25 24 23 23 25 26 26 25 23 22 21 20 21 20 21 20 19 17 15 14 13 13 12 12 11 11 10 9 10 10 9 9 8 7 6 6 5
28 29 29 26 28 28 26 26 26 26 25 26 28 28 28 26 23 22 22 22 22 22 20 19 18 17 15 14 13 13 12 10 10 10 10 9 9 8 6 5 5 5 4
29 28 28 28 33 30 26 24 26 27 27 27 27 28 29 28 27 25 24 24 23 23 22 20 20 18 17 16 14 13 12 11 10 10 9 8 8 7 6 6 5 6 6
29 29 28 29 30 27 25 26 26 26 27 27 27 27 28 29 27 27 27 27 26 25 24 22 21 20 19 17 16 15 13 12 11 10 9 9 8 8 7 7 7 7 7
30 30 29 28 28 27 26 25 27 28 27 27 26 25 25 27 27 27 28 29 29 27 26 25 24 23 20 20 19 17 16 15 13 12 11 11 10 10 10 9 9 9 8
29 29 28 28 27 29 29 28 28 26 27 26 25 24 25 26 26 26 28 30 31 30 27 26 27 26 23 22 21 19 19 16 15 14 13 12 12 11 11 10 10 9 9
28 29 29 29 29 27 24 24 23 23 24 24 25 26 27 27 27 27 26 29 32 32 30 28 28 27 25 23 23 22 19 17 18 17 16 15 14 13 11 11 11 11 11
30 30 29 27 23 21 21 19 20 23 24 24 25 27 26 25 25 26 25 25 28 31 31 30 28 26 27 26 25 23 21 21 20 19 19 17 16 14 13 14 13 12 11
29 29 26 24 21 20 21 20 21 21 21 21 22 23 24 23 22 21 22 23 24 29 28 29 27 25 26 28 26 25 24 25 23 23 21 19 16 16 17 16 15 13 13
25 24 22 21 20 18 18 18 19 19 19 20 21 23 21 20 20 20 19 19 19 21 24 26 25 25 26 29 28 28 28 27 25 23 20 18 19 18 16 15 15 14 14
23 22 21 19 18 18 18 18 19 19 20 22 23 22 21 22 17 18 18 18 18 17 18 21 23 25 27 30 31 30 30 27 28 25 23 22 20 18 16 14 15 14 14
23 20 20 19 18 17 18 16 13 15 15 17 18 21 21 21 19 20 21 20 16 16 19 23 24 26 29 30 32 33 31 30 30 26 25 23 21 19 16 15 14 14 14
21 19 18 17 17 18 18 18 18 15 15 16 16 18 20 21 22 24 23 23 24 19 25 26 26 28 30 31 33 34 33 29 30 28 27 25 22 19 19 15 13 13 14
18 18 18 18 19 20 22 22 21 23 26 26 22 20 19 22 23 25 25 23 25 24 26 29 29 30 31 32 32 32 30 29 29 31 28 26 24 21 20 15 13 16 14
18 19 18 17 15 17 18 18 17 18 19 20 18 18 18 20 20 21 21 22 23 23 25 28 31 33 34 31 29 29 28 28 30 29 29 28 25 24 20 21 20 15 15
20 22 23 29 24 15 15 17 20 20 20 21 21 20 20 19 17 16 15 15 17 19 21 23 25 28 30 32 29 26 25 26 29 30 33 31 28 27 26 23 19 15 16
20 22 26 28 29 25 20 18 19 22 23 23 23 20 19 20 21 19 19 18 18 19 19 20 20 23 25 25 25 24 22 24 25 28 29 28 28 27 24 20 19 16 13
26 27 25 28 27 25 26 27 25 28 26 25 25 23 19 18 18 19 20 20 19 18 18 19 19 18 19 19 19 18 19 21 24 24 24 25 25 23 21 19 18 15 13
25 26 25 25 30 28 30 30 31 31 30 27 26 25 23 21 20 20 20 19 19 18 17 17 18 18 16 15 13 13 14 17 19 20 20 21 22 22 20 19 16 14 14
26 26 25 22 26 26 27 28 29 28 27 26 26 24 23 22 21 20 19 19 18 18 17 16 16 15 12 11 10 10 10 12 13 15 15 18 20 20 18 17 15 13 13
25 24 22 24 23 24 26 25 26 24 23 23 24 24 22 22 21 18 18 17 16 14 12 11 11 10 9 9 8 8 8 10 12 12 14 16 17 17 17 16 13 12 13
23 23 22 22 23 23 23 24 23 22 22 22 20 20 21 21 21 18 18 15 13 12 10 8 7 7 7 8 8 8 9 10 11 12 13 15 16 17 17 14 12 12 12
Wind_Direction
306 303 298 302 302 298 286 286 288 290 300 305 305 304 306 304 299 295 291 294 295 297 301 303 303 292 283 286 292 295 292 274 274 282 289 290 298 298 295 297 305 320 317
317 307 303 309 304 300 298 291 285 279 284 292 299 301 298 295 290 292 290 289 290 295 298 301 306 304 287 281 280 286 291 292 285 271 277 285 287 286 288 289 295 293 301
329 320 319 318 311 306 302 295 284 275 277 282 287 291 288 285 282 282 283 284 286 289 293 294 293 300 296 284 278 282 277 283 286 279 270 274 271 267 263 267 279 296 297
328 327 321 320 315 310 306 299 289 280 274 275 278 281 285 285 281 277 277 278 281 286 290 291 292 292 287 285 281 281 280 280 281 278 273 262 260 259 263 268 277 286 289
318 314 312 307 307 304 299 297 296 289 282 276 273 273 276 279 281 278 277 277 279 282 282 283 283 281 280 279 279 277 277 278 279 274 266 260 258 257 257 263 265 269 265
311 309 311 305 304 301 294 292 289 288 287 283 277 274 273 273 277 277 277 276 277 278 279 277 277 276 275 275 275 275 274 271 270 268 262 261 262 258 256 256 262 272 273
307 303 305 302 304 297 287 284 287 286 287 285 281 275 272 272 274 275 276 275 274 275 276 274 274 275 275 274 272 269 269 267 263 261 263 263 259 257 259 261 263 266 274
309 306 305 305 303 301 290 282 282 285 283 283 282 279 276 271 270 271 274 275 273 271 271 271 270 270 270 269 268 265 261 260 259 256 254 252 255 256 259 264 267 269 273
312 308 306 307 305 303 297 294 289 285 282 278 277 276 276 275 274 271 270 271 273 274 272 271 269 268 268 268 266 264 261 259 257 257 254 252 254 257 261 261 261 266 274
313 311 308 308 303 300 300 292 294 285 280 280 276 275 277 277 276 271 270 270 270 269 268 269 269 270 266 264 264 261 258 260 260 259 257 254 254 256 261 260 257 258 267
316 312 310 308 307 305 301 298 294 292 289 284 282 279 278 277 275 274 271 269 268 271 270 268 267 266 266 265 262 259 260 252 254 256 257 259 260 261 259 260 258 258 263
313 312 313 314 308 306 303 296 295 296 295 293 291 288 285 283 280 276 272 267 268 268 267 267 269 264 263 263 261 260 254 252 249 253 254 259 263 263 263 259 259 262 266
313 314 315 313 309 307 306 303 299 296 294 294 294 294 295 294 288 281 276 271 266 267 265 265 268 263 257 258 255 256 253 250 250 247 251 256 259 258 260 260 262 264 268
321 321 320 315 310 307 304 302 300 299 298 297 296 296 298 298 300 297 284 272 267 264 264 262 264 262 256 256 254 252 252 253 252 254 255 254 253 256 257 258 261 262 264
323 322 321 320 316 310 306 304 300 297 298 297 297 295 295 297 306 303 295 284 270 272 271 262 257 254 253 250 249 248 251 251 250 251 248 252 256 254 255 257 260 261 260
324 323 322 321 319 316 312 310 309 311 313 310 306 300 294 292 300 298 298 295 281 267 265 262 256 253 253 253 252 249 248 251 253 252 250 251 252 254 255 257 262 265 259
324 326 327 328 328 326 321 318 314 302 309 310 306 303 300 297 294 289 282 284 284 265 257 261 258 256 255 256 258 254 250 252 255 256 253 249 247 247 249 255 264 276 264
325 328 331 330 328 322 313 308 308 309 310 307 307 304 297 295 291 290 290 285 281 276 265 262 266 266 262 259 259 258 254 247 246 251 246 245 241 243 242 244 257 270 264
309 313 325 330 339 348 349 342 333 324 319 321 324 322 317 299 293 290 289 283 280 280 277 272 270 269 274 272 268 265 259 246 239 243 242 238 238 240 236 250 250 252 260
300 299 297 312 297 313 322 328 331 332 330 323 320 321 318 314 320 321 310 299 291 285 283 280 278 276 277 278 276 273 263 251 243 239 241 240 236 236 243 247 244 240 247
297 300 317 301 293 298 302 316 326 326 328 331 328 323 322 318 319 315 312 307 296 291 285 282 280 276 277 277 275 271 263 255 249 243 242 241 236 235 240 240 238 239 242
294 294 314 319 310 299 303 304 309 312 312 318 323 328 319 312 312 310 308 308 302 297 291 283 276 275 276 276 275 270 259 252 246 248 242 241 236 235 233 235 236 233 232
297 297 297 310 310 301 297 295 294 299 298 303 308 315 322 315 312 311 310 307 304 302 299 288 278 274 273 274 271 257 249 250 252 243 245 236 232 228 229 231 228 228 235
293 294 291 290 302 305 303 302 300 298 296 292 293 300 311 315 309 307 308 307 303 301 296 290 280 277 271 261 257 247 237 240 243 246 240 233 227 223 227 222 223 225 234
294 293 292 291 288 288 295 298 297 297 296 296 286 290 297 309 307 301 305 306 306 304 301 295 283 269 257 240 229 223 229 229 220 219 220 217 220 223 219 218 221 227 235
293 291 290 289 288 289 290 291 293 296 297 298 295 287 288 294 302 299 304 304 304 303 302 297 284 271 257 241 226 217 211 208 207 206 207 212 210 209 209 213 218 231 235
Height
1492 1490 1488 1487 1486 1483 1482 1481 1480 1480 1478 1476 1474 1472 1470 1468 1466 1465 1463 1462 1461 1459 1458 1457 1455 1453 1452 1451 1451 1450 1449 1447 1446 1444 1442 1440 1438 1437 1435 1435 1434 1433 1433
1487 1485 1484 1482 1480 1479 1477 1476 1475 1474 1473 1472 1470 1468 1467 1465 1464 1462 1461 1459 1458 1457 1455 1453 1452 1449 1448 1447 1447 1446 1445 1444 1442 1441 1440 1438 1437 1435 1434 1433 1432 1431 1429
1485 1482 1480 1478 1476 1474 1472 1471 1470 1469 1468 1467 1465 1464 1463 1461 1460 1458 1457 1456 1454 1453 1451 1449 1447 1446 1445 1444 1443 1442 1441 1440 1439 1437 1437 1436 1434 1433 1432 1431 1430 1428 1428
1481 1479 1477 1475 1472 1470 1468 1466 1464 1463 1461 1461 1460 1459 1458 1456 1455 1454 1453 1451 1450 1448 1447 1445 1444 1443 1441 1440 1439 1439 1438 1436 1435 1433 1432 1432 1432 1431 1430 1429 1428 1427 1426
1476 1473 1471 1469 1467 1464 1462 1461 1459 1457 1455 1454 1453 1452 1452 1450 1450 1449 1447 1446 1445 1444 1442 1441 1440 1439 1438 1437 1436 1435 1434 1433 1432 1431 1430 1429 1428 1427 1427 1427 1426 1426 1425
1470 1467 1465 1462 1459 1456 1455 1453 1452 1450 1449 1447 1446 1446 1445 1444 1444 1443 1442 1441 1440 1439 1438 1437 1436 1435 1434 1433 1432 1432 1431 1429 1429 1428 1427 1426 1426 1426 1425 1425 1424 1425 1425
1463 1460 1458 1455 1451 1448 1445 1444 1443 1442 1441 1440 1438 1438 1437 1438 1439 1438 1437 1436 1435 1434 1433 1432 1431 1431 1430 1429 1428 1426 1427 1426 1425 1424 1424 1424 1424 1424 1424 1424 1423 1422 1422
1456 1453 1451 1448 1443 1440 1438 1436 1434 1433 1432 1431 1430 1430 1429 1428 1430 1431 1431 1430 1429 1429 1428 1427 1427 1426 1426 1425 1423 1423 1422 1421 1421 1421 1421 1421 1421 1421 1421 1421 1421 1420 1419
1450 1446 1443 1440 1436 1433 1431 1428 1427 1425 1423 1422 1421 1421 1420 1421 1422 1423 1422 1422 1422 1423 1423 1422 1422 1421 1421 1420 1420 1419 1419 1418 1417 1418 1417 1417 1417 1418 1418 1418 1417 1418 1417
1442 1438 1435 1433 1430 1426 1424 1421 1418 1417 1415 1414 1414 1414 1413 1413 1413 1414 1414 1414 1413 1413 1415 1415 1416 1416 1416 1415 1415 1415 1414 1415 1414 1414 1414 1413 1413 1413 1413 1414 1413 1413 1413
1435 1431 1428 1425 1422 1419 1416 1415 1413 1410 1409 1409 1407 1406 1405 1405 1405 1404 1405 1404 1405 1406 1406 1408 1409 1409 1410 1410 1409 1409 1410 1411 1410 1410 1410 1410 1410 1410 1409 1409 1409 1410 1410
1430 1425 1422 1418 1415 1412 1410 1408 1407 1405 1404 1403 1401 1400 1399 1398 1397 1397 1395 1394 1395 1395 1397 1398 1400 1402 1403 1404 1405 1404 1404 1405 1405 1405 1405 1406 1407 1407 1406 1406 1406 1406 1406
1424 1420 1416 1413 1410 1407 1405 1403 1402 1400 1398 1396 1395 1393 1392 1392 1391 1389 1387 1386 1386 1385 1387 1388 1390 1393 1395 1395 1396 1398 1399 1398 1399 1397 1398 1400 1401 1402 1403 1403 1402 1402 1402
1419 1415 1411 1408 1405 1403 1401 1399 1397 1395 1393 1391 1389 1388 1386 1385 1384 1383 1381 1380 1379 1377 1378 1379 1382 1383 1385 1388 1389 1391 1392 1393 1394 1394 1394 1396 1396 1396 1396 1398 1398 1397 1397
1415 1411 1407 1404 1400 1398 1397 1394 1392 1391 1389 1386 1385 1383 1381 1380 1379 1377 1375 1375 1374 1373 1372 1371 1372 1373 1374 1376 1380 1383 1385 1387 1387 1388 1389 1391 1392 1392 1391 1392 1393 1392 1393
1412 1408 1405 1401 1398 1395 1393 1391 1390 1387 1384 1382 1380 1378 1377 1374 1373 1372 1370 1369 1368 1368 1365 1364 1364 1366 1366 1367 1369 1372 1376 1379 1381 1383 1384 1384 1386 1389 1388 1387 1388 1388 1388
1410 1406 1403 1399 1396 1393 1391 1388 1384 1385 1383 1380 1376 1374 1373 1370 1367 1365 1364 1362 1360 1361 1357 1357 1358 1358 1359 1359 1360 1362 1366 1371 1374 1377 1378 1379 1380 1382 1383 1383 1384 1383 1384
1408 1405 1401 1398 1393 1390 1388 1386 1381 1379 1375 1373 1371 1368 1366 1363 1360 1359 1357 1355 1353 1352 1351 1351 1350 1350 1350 1351 1352 1354 1357 1361 1365 1367 1369 1372 1374 1374 1376 1377 1379 1380 1380
1406 1403 1400 1396 1393 1388 1385 1383 1378 1376 1373 1369 1365 1363 1360 1358 1355 1353 1351 1349 1347 1346 1346 1345 1345 1345 1343 1344 1346 1347 1349 1351 1354 1357 1361 1364 1366 1369 1370 1372 1373 1374 1375
1401 1399 1395 1391 1389 1385 1383 1380 1377 1373 1369 1365 1362 1359 1357 1353 1350 1348 1346 1344 1342 1341 1340 1339 1338 1338 1337 1337 1338 1340 1341 1343 1346 1348 1351 1354 1358 1361 1364 1366 1368 1369 1370
1394 1392 1388 1384 1383 1380 1378 1376 1373 1370 1366 1363 1359 1356 1352 1348 1346 1344 1342 1340 1338 1336 1334 1333 1332 1331 1331 1331 1331 1332 1334 1337 1339 1341 1344 1348 1352 1355 1358 1360 1362 1364 1366
1387 1383 1380 1378 1376 1374 1372 1371 1368 1366 1362 1359 1355 1351 1348 1346 1343 1341 1338 1336 1333 1331 1329 1328 1326 1326 1325 1325 1326 1326 1328 1330 1333 1336 1339 1343 1346 1350 1353 1356 1358 1359 1360
1378 1376 1374 1372 1370 1367 1364 1363 1361 1359 1356 1352 1349 1347 1344 1341 1338 1336 1333 1331 1329 1326 1324 1322 1321 1320 1320 1320 1321 1322 1323 1325 1328 1331 1334 1337 1341 1345 1348 1351 1353 1355 1357
1370 1369 1366 1364 1362 1360 1357 1355 1353 1350 1347 1344 1343 1341 1338 1335 1333 1331 1329 1326 1323 1321 1319 1317 1316 1316 1315 1316 1317 1317 1319 1321 1324 1327 1330 1333 1337 1341 1344 1346 1349 1351 1354
1362 1360 1358 1356 1353 1352 1350 1348 1346 1343 1339 1337 1335 1333 1331 1330 1328 1326 1324 1321 1318 1317 1315 1314 1313 1312 1312 1312 1313 1315 1316 1318 1320 1323 1326 1329 1333 1337 1340 1343 1346 1348 1350
1355 1352 1350 1348 1346 1345 1343 1340 1337 1335 1332 1330 1328 1326 1325 1323 1322 1320 1319 1316 1314 1313 1313 1312 1311 1310 1310 1311 1312 1313 1314 1316 1318 1321 1324 1327 1330 1333 1337 1340 1342 1345 1347